Location: CNYAC Observatory
(43.2150°N, 74.9500°W)
Time: 02:18:51
(UTC-04:00)

Daily predictions for brighter satellites

Satellite Brightness Start Highest point End
(mag) Time Altitude Azimuth Time Altitude Azimuth Time Altitude Azimuth
Cosmos 1869 Rocket 3.6 00:04:37 61° SE 00:05:01 65° E 00:09:29 10° NNE
Cosmos 2333 Rocket 2.6 00:00:01 10° NW 00:05:36 53° WSW 00:07:11 41° SSW
ALOS 2 3.0 00:06:37 47° ESE 00:07:14 52° ENE 00:11:31 10° N
CZ-4C R/B 3.3 00:10:20 60° NE 00:10:20 60° NE 00:13:30 10° N
SL-16 R/B 2.3 00:06:13 10° NNW 00:11:54 71° ENE 00:13:41 44° SE
Lacrosse 4 Rocket 2.0 00:09:26 10° NNW 00:13:46 54° ENE 00:14:35 46° E
NOSS 3-1 (A) 4.5 00:09:50 10° WSW 00:15:34 45° NW 00:21:59 10° NNE
Cosmos 1455 4.2 00:18:45 10° NW 00:21:30 19° W 00:21:56 19° W
Cosmos 372 Rocket 4.1 00:22:14 51° SE 00:22:52 55° ESE 00:27:59 10° NNE
Cosmos 2074 Rocket 4.1 00:22:06 45° SSE 00:23:58 64° E 00:30:12 10° NNE
Landsat 5 3.8 00:23:40 54° ESE 00:24:13 59° ENE 00:28:41 10° N
ASTEX 1 3.6 00:19:35 10° NNE 00:24:23 54° E 00:24:59 50° ESE
Meteor 1-26 Rocket 4.1 00:20:23 10° N 00:26:00 89° W 00:27:26 53° S
Cosmos 2297 Rocket 2.4 00:25:45 36° SW 00:28:05 68° WNW 00:33:46 10° NNE
ERBS 3.3 00:30:25 46° NE 00:30:25 46° NE 00:32:59 10° NE
Cosmos 1709 Rocket 4.5 00:27:28 31° SW 00:30:11 52° WNW 00:36:09 10° N
H-2A R/B 2.3 00:26:13 10° NNE 00:30:24 80° ESE 00:30:32 79° SE
CZ-4C R/B 4.2 00:25:26 10° NNW 00:31:34 33° NE 00:38:17 10° ESE
Cosmos 2221 Rocket 4.1 00:28:27 10° NNW 00:32:51 49° W 00:33:22 47° WSW
COS B Rocket 4.3 00:31:45 10° NNW 00:35:07 35° W 00:35:12 35° W
GEOS 3 Rocket 3.8 00:35:40 50° SSW 00:36:20 54° WSW 00:41:26 10° NW
Cosmos 1703 Rocket 4.3 00:32:34 10° NNW 00:36:39 41° W 00:37:00 40° WSW
Cosmos 2219 Rocket 3.7 00:33:08 10° NW 00:37:15 21° W 00:38:24 20° WSW
ATLAS 2AS CENTAUR R/B 3.1 00:32:38 22° SW 00:37:54 76° NW 00:46:03 10° NE
Helios 1B 4.4 00:38:25 79° SE 00:38:40 86° E 00:43:02 10° NNW
COSMOS 2455 2.8 00:34:40 10° NW 00:40:41 71° WSW 00:42:07 52° S
CZ-2C R/B 3.3 00:36:37 10° NNE 00:41:29 38° E 00:42:07 36° ESE
Okean 1-7 3.2 00:37:56 10° NNW 00:42:09 57° W 00:42:15 57° WSW
Cosmos 2251 Rocket 4.0 00:39:04 10° NNW 00:44:19 55° ENE 00:45:50 41° ESE
Cosmos 1603 4.2 00:39:45 10° NNW 00:45:18 52° ENE 00:47:31 34° ESE
Meteor 2-10 Rocket 3.9 00:40:50 10° N 00:46:20 64° ENE 00:47:50 46° SE
Cosmos 2154 Rocket 4.5 00:47:46 39° SE 00:49:34 50° E 00:55:36 10° NNE
MOS 1-B Rocket 4.0 00:47:44 42° SE 00:49:37 64° ENE 00:55:09 10° N
Cosmos 1606 4.5 00:49:34 10° NNE 00:52:39 23° ENE 00:52:58 22° E
Geosat 3.9 00:51:10 10° NNE 00:56:14 83° ESE 00:57:05 62° SSW
Cosmos 389 Rocket 3.7 00:52:52 10° NNW 00:55:35 35° WNW 00:55:35 35° WNW
Cosmos 1674 Rocket 3.9 00:52:04 10° N 00:56:24 52° ENE 00:56:48 50° E
Meteor 1-10 Rocket 4.5 00:52:04 10° N 00:57:59 66° ENE 00:59:45 45° SE
Meteor 2-3 Rocket 3.8 00:57:40 49° SSW 00:59:14 74° W 01:04:59 10° N
ATLAS 3B R/B 2.8 00:53:46 10° NW 01:00:36 58° WSW 01:02:13 46° SSW
Cosmos 2184 Rocket 4.1 00:59:54 44° SSW 01:01:54 70° W 01:08:06 10° N
Helios 1A Rocket 2.8 00:57:46 10° NNE 01:01:57 86° WNW 01:01:59 86° W
USA 238 DEB 3.8 00:55:29 10° NW 01:02:33 77° NE 01:06:14 31° SE
USA 238 3.8 00:55:36 10° NW 01:02:40 76° NE 01:06:22 31° SE
Cosmos 2237 Rocket 3.8 01:00:18 10° NW 01:04:18 20° W 01:05:04 19° WSW
Cosmos 1932 4.5 01:00:45 10° NNW 01:07:11 83° ENE 01:09:46 39° SE
FALCON 9 R/B 3.8 01:01:47 10° W 01:09:35 28° SW 01:09:35 28° SW
Cosmos 1892 2.9 01:11:42 68° NNW 01:11:42 68° NNW 01:15:09 10° N
Cosmos 1908 Rocket 4.2 01:12:15 41° E 01:12:23 41° E 01:16:28 10° NNE
NOSS 2-3 (E) 4.0 01:11:18 51° SW 01:12:35 78° NW 01:18:22 10° NE
Cosmos 921 Rocket 3.6 01:14:28 42° E 01:14:28 42° E 01:18:13 10° NNE
Cosmos 44 4.0 01:14:57 43° SE 01:15:17 43° ESE 01:20:26 10° NE
CZ-4B R/B 3.4 01:17:43 23° WNW 01:17:43 23° WNW 01:19:48 10° NW
Cosmos 2341 Rocket 4.2 01:16:06 44° SSE 01:18:05 66° E 01:24:25 10° NNE
Uosat 12 SS-18 rocket 4.1 01:18:54 69° SSE 01:19:18 73° ESE 01:23:47 10° NE
H-2A ROCKET BODY 4.3 00:50:22 10° W 01:21:16 36° SSW 01:23:23 34° SSW
Cosmos 1782 2.8 01:20:12 10° N 01:23:58 79° NNW 01:23:58 79° NNW
Cosmos 2084 Rocket 3.7 01:25:05 51° ENE 01:25:05 51° ENE 01:28:09 10° NE
PSLV R/B 4.2 01:25:18 56° E 01:25:37 58° ENE 01:29:38 10° N
Sich 1 Rocket 3.4 01:27:48 76° SSE 01:28:06 83° E 01:32:37 10° N
Cosmos 494 Rocket 3.9 01:23:30 10° NNW 01:28:47 90° ENE 01:29:54 57° SSE
USA 234 3.8 01:22:59 10° ESE 01:29:22 59° NNE 01:35:46 10° NW
Cosmos 1340 Rocket 3.4 01:32:25 46° WNW 01:32:25 46° WNW 01:36:10 10° N
Aureole 2 Rocket 4.3 01:29:46 10° NW 01:31:09 22° NW 01:31:09 22° NW
Cosmos 962 Rocket 4.4 01:32:22 49° S 01:34:11 85° E 01:40:20 10° N
Cosmos 44 Rocket 3.9 01:39:15 37° WSW 01:41:01 56° NW 01:46:12 10° NNE
Cosmos 1825 2.6 01:42:13 52° E 01:42:13 52° E 01:45:46 10° NNE
SL-8 Rocket 4.3 01:40:17 39° SSE 01:42:32 60° E 01:48:45 10° NNE
Cosmos 2218 Rocket 4.4 01:43:58 35° SSE 01:46:20 53° E 01:52:27 10° NNE
Cosmos 1733 Rocket 4.0 01:46:04 35° W 01:46:37 37° WNW 01:50:47 10° N
Cosmos 1408 2.8 01:49:45 64° E 01:49:45 64° E 01:53:22 10° NNE
Lacrosse 4 Rocket 3.6 01:49:17 10° WNW 01:50:55 15° W 01:50:55 15° W
Coronas F rocket 3.9 01:53:28 17° NW 01:53:28 17° NW 01:54:33 10° NNW
Cosmos 2263 Rocket 2.8 01:51:58 36° SE 01:53:25 43° ESE 01:58:46 10° NE
SL-16 R/B 3.9 01:51:51 10° WNW 01:55:21 17° W 01:55:32 17° W
Meteor 1-27 Rocket 3.8 01:49:53 10° NNW 01:55:45 71° W 01:57:22 48° SSW
BREEZE-M DEB (TANK) 3.5 01:53:53 10° WNW 01:57:18 31° W 01:57:18 31° W
NOSS 3-4 (A) 3.8 01:57:31 40° S 01:59:27 55° ESE 02:05:50 10° NE
NOSS 3-4 (C) 3.8 01:57:37 40° S 01:59:33 54° ESE 02:05:55 10° NE
Cosmos 1378 Rocket 3.5 01:55:22 10° NNW 01:59:44 65° W 02:00:01 63° WSW
NOSS 3-2 (A) 4.0 01:53:50 10° NW 02:01:20 81° NE 02:09:08 11° SE
Meteor 2-13 Rocket 4.4 02:00:36 44° S 02:02:40 87° W 02:08:50 10° N
Okean 3 3.3 01:59:05 10° N 02:03:24 79° W 02:03:49 70° SSW
Cosmos 2366 rocket 4.2 02:01:50 37° SSE 02:04:17 63° E 02:10:23 10° NNE
Cosmos 1862 3.4 02:06:05 61° W 02:06:14 62° W 02:10:14 10° N
Okean 2 Rocket 3.0 02:10:09 62° S 02:10:55 90° S 02:15:28 10° N
CZ-2C R/B 3.8 02:11:35 39° SW 02:12:55 45° W 02:18:21 10° NNW
Cosmos 1238 Rocket 3.7 02:09:09 10° NNW 02:12:49 34° W 02:12:49 34° W
JB-3 4.4 02:16:11 10° NNE 02:20:00 60° E 02:20:28 55° SE
Cosmos 1782 Rocket 3.7 02:19:57 52° WSW 02:20:36 59° W 02:24:57 10° N
CZ-4C R/B 2.8 02:13:39 10° NW 02:20:44 73° WSW 02:26:09 22° SSE
CZ-2C R/B 3.9 02:17:10 10° N 02:21:37 29° WNW 02:23:38 22° WSW
Cosmos 1943 3.2 02:16:09 10° NNW 02:21:47 64° WSW 02:23:35 42° S
Cosmos 1727 Rocket 4.0 02:17:16 10° N 02:23:34 82° E 02:26:41 32° SSE
Cosmos 1606 4.2 02:25:16 10° NW 02:28:05 24° W 02:28:05 24° W
Cosmos 864 Rocket 4.4 02:27:04 37° S 02:29:42 88° W 02:35:54 10° N
Landsat 4 3.6 02:33:45 64° S 02:34:17 86° WSW 02:38:06 10° NNW
Cosmos 1867 3.5 02:33:53 10° NW 02:39:24 86° WSW 02:43:22 19° SSE
PSLV R/B 3.6 02:35:23 10° N 02:39:34 64° WNW 02:40:32 48° SW
Resurs 1-4 Rocket 4.4 02:37:15 10° NE 02:40:37 17° E 02:43:58 10° SE
CRYOSAT 2 4.3 02:36:00 10° N 02:40:52 77° W 02:42:31 42° SSW
Cosmos 1975 Rocket 3.9 02:38:47 10° NNW 02:42:44 33° W 02:43:12 32° WSW
USA 161 4.0 02:44:56 13° ESE 02:46:32 19° ENE 02:48:41 10° NNE
Cosmos 1242 Rocket 2.3 02:43:05 10° NNW 02:46:37 82° WSW 02:47:00 67° SSW
BREEZE-M DEB (TANK) 3.9 02:33:39 10° WSW 02:46:49 61° NNW 02:50:34 10° ENE
Cosmos 1536 Rocket 3.4 02:50:20 10° N 02:54:43 80° W 02:56:22 38° S
Cosmos 1624 Rocket 3.9 02:52:41 36° SSW 02:54:54 88° ESE 03:00:10 10° NNE
IRAS Rocket 4.2 02:51:15 10° NNE 02:56:48 90° WNW 02:59:36 31° SSW
NPP 3.6 02:58:40 10° NNE 03:04:05 82° WNW 03:06:51 30° SSW
Meteor 1-20 Rocket 4.4 03:01:49 25° S 03:05:20 75° E 03:11:08 10° NNE
SL-16 R/B 3.5 03:02:21 10° SE 03:08:16 47° ENE 03:14:12 10° N
ADEOS 3.8 03:03:03 10° NNE 03:08:17 65° ESE 03:11:28 24° S
Cosmos 2151 Rocket 4.0 03:07:47 34° SW 03:09:19 49° WNW 03:13:39 10° N
Cosmos 1000 Rocket 4.5 03:03:38 10° N 03:09:49 83° E 03:14:53 16° S
Okean 1 3.4 03:06:24 10° N 03:10:24 74° E 03:12:40 25° SSE
BREEZE-M TANK 1.5 03:07:19 10° WNW 03:10:30 72° SSW 03:13:06 10° ESE
Iridium 4 Rocket 3.7 03:06:10 10° NNW 03:10:35 48° W 03:12:32 31° SW
Okean 1-7 Rocket 4.0 03:07:20 10° N 03:11:54 64° E 03:15:29 16° SSE
USA 234 3.5 03:06:15 10° SSE 03:12:28 46° SW 03:18:43 10° WNW
Cosmos 1812 2.6 03:08:53 10° N 03:12:48 88° W 03:14:38 30° S
Cosmos 1184 Rocket 4.3 03:13:16 24° W 03:13:44 25° WNW 03:16:36 10° NNW
ARIANE 5 R/B 3.4 03:09:46 10° NNE 03:14:32 43° E 03:18:19 15° SSE
Abrixas rocket 2.2 03:15:16 48° SSW 03:16:00 68° SSE 03:19:20 10° ENE
RESURS DK-1 2.8 03:14:33 31° WSW 03:16:13 52° WNW 03:20:18 10° NNE
Cosmos 1452 Rocket 4.0 03:12:59 22° S 03:16:14 54° ESE 03:21:22 10° NNE
ERS-2 2.3 03:14:28 10° N 03:18:09 62° WNW 03:19:28 36° SW
CBERS-1 4.1 03:17:19 10° N 03:22:25 66° WNW 03:25:21 26° SSW
Okean O Rocket 4.2 03:22:39 10° ENE 03:25:05 15° E 03:27:31 10° SE
Okean 1 Rocket 3.0 03:23:13 26° S 03:25:43 89° ESE 03:30:12 10° N
NOSS 3-2 (C) 4.4 03:20:06 10° NW 03:27:07 42° WSW 03:34:29 10° S
CZ-2D R/B 3.1 03:24:09 10° NNE 03:29:22 45° E 03:34:28 10° S
CENTAUR R/B 3.4 03:21:40 10° NNW 03:29:27 73° NE 03:37:44 10° SE
Cosmos 1821 Rocket 4.1 03:26:35 18° S 03:31:28 90° E 03:37:55 10° N
Cosmos 2123 Rocket 4.3 03:25:42 10° N 03:32:02 70° E 03:38:20 10° SSE
GP-B 3.3 03:30:18 10° N 03:34:39 53° W 03:37:07 24° SSW
Cosmos 1844 Rocket 2.9 03:31:31 19° S 03:35:34 66° ESE 03:41:13 10° NNE
Cosmos 1844 4.4 03:32:22 15° S 03:36:50 50° ESE 03:42:21 10° NE
Cosmos 2263 Rocket 3.4 03:33:39 15° WSW 03:37:28 31° NW 03:42:30 10° N
COSMOS 2406 3.3 03:35:14 10° NNW 03:40:55 58° WSW 03:46:32 10° S
SL-08 R/B 4.3 03:41:41 21° SW 03:43:54 30° W 03:48:14 10° NW
Meteor 2-14 Rocket 4.4 03:46:33 13° S 03:51:57 89° W 03:58:04 10° N
Cosmos 2278 Rocket 3.1 03:46:40 10° S 03:52:00 44° ESE 03:57:22 10° NE
Meteor 2-21 Rocket 4.4 03:49:46 15° SSW 03:54:52 74° W 04:01:00 10° N
Spot 4 Rocket 4.3 03:50:16 10° N 03:55:19 56° WNW 03:59:15 16° SW
Cosmos 1140 Rocket 3.6 03:50:14 10° NNW 03:55:24 80° ENE 04:00:31 10° SSE
UNK 3.7 03:52:45 10° S 03:57:21 81° WSW 04:02:02 10° NNW
Cosmos 1602 3.7 03:55:28 17° SSW 03:58:20 74° W 04:02:12 10° N
Cosmos 1850 Rocket 4.4 03:53:13 10° NNW 03:58:26 66° ENE 04:03:39 10° SSE
NOSS 2-2 (D) 4.2 03:55:44 15° S 03:58:55 50° ESE 04:03:31 10° NE
Tiangong 1 2.1 03:59:17 22° SW 04:00:04 25° SSW 04:02:39 10° SSE
Cosmos 1025 Rocket 2.9 03:56:33 10° N 04:00:51 82° W 04:05:08 10° S
Cosmos 407 Rocket 4.2 03:57:05 10° NW 04:01:42 34° WSW 04:05:49 12° SSW
Meteor 2-15 4.4 03:55:51 10° NNW 04:02:00 75° W 04:08:07 10° S
ATLAS 5 CENTAUR R/B 3.5 03:56:37 10° NNW 04:02:21 49° NE 04:08:29 10° ESE
Cosmos 676 Rocket 4.4 04:02:21 10° NW 04:07:11 40° WSW 04:11:59 10° S
Cosmos 1536 2.8 04:04:07 13° S 04:07:47 82° W 04:11:53 10° N
Meteor 2-4 Rocket 3.7 04:02:36 10° N 04:08:04 83° E 04:13:25 10° SSE
CZ-4C R/B 4.4 04:04:31 10° WNW 04:08:27 15° WSW 04:11:13 13° SW
Cosmos 2082 Rocket 4.2 04:04:01 10° N 04:09:11 33° NE 04:14:19 10° ESE
SL-27 R/B 3.8 04:08:44 10° NW 04:11:42 24° W 04:13:49 15° SW
NOSS 2-2 (C) 3.7 04:09:51 14° SSW 04:13:21 70° ESE 04:18:09 10° NE
IRS-1D 3.7 04:11:17 10° N 04:16:17 56° WNW 04:20:59 11° SSW
USA 161 3.3 04:16:07 14° WSW 04:16:53 15° W 04:18:43 10° NW
Cosmos 1544 Rocket 3.6 04:13:40 10° S 04:18:07 88° E 04:22:33 10° N
UNKNOWN OBJECT B 2.9 04:14:35 10° N 04:18:42 84° W 04:22:47 10° SSW
Gbstr 26 Del rocket 2.7 04:16:43 14° SW 04:20:02 74° SE 04:23:45 10° ENE
Resurs 1-4 Rocket 2.2 04:15:39 10° N 04:20:56 65° WNW 04:26:09 10° SSW
OTV 4 2.3 04:22:22 13° SSW 04:22:45 14° SSW 04:24:18 10° S
IRS-1C Rocket 4.4 04:19:51 10° NNE 04:25:07 71° ESE 04:30:22 10° S
Timation 2 Rocket 4.0 04:28:42 10° NNW 04:34:56 88° ENE 04:40:56 10° SSE
Cosmos 1892 Rocket 3.9 04:34:11 10° NNW 04:38:22 47° W 04:42:31 10° SSW
BREEZE-M DEB (TANK) 3.9 04:28:24 10° WNW 04:38:33 53° N 04:41:44 10° E
NOSS 2-2 (E) 3.9 04:35:34 10° SW 04:39:46 63° NW 04:44:48 10° NNE
Cosmos 1633 3.4 04:37:32 10° SW 04:40:52 35° WNW 04:44:14 10° N
Cosmos 2061 Rocket 4.2 04:38:13 10° S 04:44:30 80° E 04:50:56 10° N
SME Rocket 3.9 04:41:40 10° SSW 04:44:52 26° W 04:48:14 10° NW
Okean-O 4.2 04:42:30 10° NNE 04:46:37 36° E 04:50:42 10° SSE
ADEOS II 4.0 04:44:12 10° NE 04:48:48 29° E 04:53:20 10° SSE
SL-16 R/B 3.4 04:46:44 10° SSW 04:52:05 29° W 04:57:27 10° NW
